Regional Weather Roundup
Issued by NWS

Home | Current Version | Previous Version | Text Only | Print | Product List | Glossary On
Versions: 1 2 3 4 5 6 7 8 9 10 11 12 13 14 15 16 17 18 19 20 21 22 23 24 25 26 27 28 29 30 31 32 33 34 35 36 37 38 39 40 41 42 43 44 45 46 47 48 49 50
000
ASUS43 KDTX 212310
RWRMI
MICHIGAN HOURLY REGIONAL WEATHER ROUNDUP
NATIONAL WEATHER SERVICE DETROIT/PONTIAC MI
600 PM EST SUN JAN 21 2018

NOTE: "FAIR" INDICATES FEW OR NO CLOUDS BELOW 12,000 FEET WITH NO
SIGNIFICANT WEATHER AND/OR OBSTRUCTION TO VISIBILITY.

MIZ047>049-052>055-059>063-066>070-074>076-081>083-220000-
SOUTHEAST LOWER MICHIGAN

CITY           SKY/WX    TMP DP  RH WIND       PRES   REMARKS
ADRIAN         FOG       37  37 100 CALM      30.01S VSB 1/4
ALMA           FOG       35  35 100 CALM      30.01R VSB 3/4
ANN ARBOR      FOG       39  39 100 NE3       30.01R VSB 1/4
BAD AXE        FAIR      33  32  96 CALM      30.02S FOG
CARO           CLOUDY    38  35  89 CALM      30.00S
DETROIT CITY   FOG       37  37 100 SE7       30.02F VSB 1/4 WCI  32
DETROIT        FOG       39  38  96 SE6       30.03S VSB 1/4 WCI  35
FLINT          CLOUDY    37  35  92 SE5       30.01R FOG     WCI  33
GROSSE ILE     FOG       37  37  99 NE3       30.02R VSB 1/4
HILLSDALE      FOG       37  36  93 SE3       29.98S VSB 1/4
HOWELL         FOG       38  38  99 SE3       30.00R VSB 1

CITY           SKY/WX    TMP DP  RH WIND       PRES   REMARKS
JACKSON        FOG       38  38 100 SE6       29.99R VSB 1/4 WCI  33
LAMBERTVILLE   FOG       41  41  97 CALM      30.01S VSB 3/4
LANSING        CLOUDY    38  37  97 E6        30.00R FOG     WCI  33
LAPEER         CLOUDY    37  36  97 CALM      30.01R FOG
MASON          FOG       37  36  93 CALM      30.00R VSB 1/2
MONROE         FOG       37  35  93 CALM      30.01S VSB 1/4
MT. CLEMENS    FOG       36  35  93 S5        30.02S VSB 1/8 WCI  32
PONTIAC        CLOUDY    38  38 100 CALM      30.00R FOG
PORT HOPE        N/A     34  31  88 CALM      30.01R
PORT HURON     CLOUDY    36  34  93 CALM      30.03S FOG
TRI CITIES     CLOUDY    36  35  96 SE6       30.01R FOG     WCI  31
MIDLAND        CLOUDY    37  34  90 CALM      30.00S FOG
TROY           CLOUDY    40  37  92 E3        30.03S FOG
SAGINAW HB     CLOUDY    34  32  93 CALM      30.01S FOG
$$
MIZ043>046-050>051-056>058-064>065-071>073-077>080-220000-
SOUTHWEST LOWER MICHIGAN

CITY           SKY/WX    TMP DP  RH WIND       PRES   REMARKS
BATTLE CREEK   FOG       39  38  96 SE7       29.97S VSB 1/2 WCI  34
BENTON HARBOR  FOG       40  39  97 E6        29.94S VSB 3/4
BIG RAPIDS     CLOUDY    37  35  94 SE5       29.97S FOG     WCI  33
COLDWATER      FOG       40  40 100 SE3       29.98R VSB 1/4
FREMONT        LGT RAIN  37  36  93 E6        29.96S WCI  33
HOLLAND        CLOUDY    38  36  92 E6        29.96S FOG     WCI  33
GRAND RAPIDS   CLOUDY    38  36  92 E7        29.97S FOG     WCI  33
IONIA          FOG       37  37 100 NE5       29.98S VSB 1/2 WCI  33
KALAMAZOO      FOG       39  38  96 SE3       29.97R VSB<1/4
LUDINGTON      CLOUDY    39  37  92 CALM      29.97R FOG
MARSHALL       FOG       37  37  98 SE5       29.98R VSB 1/2 WCI  34
MOUNT PLEASANT CLOUDY    37  35  91 CALM      29.99S FOG
MUSKEGON       CLOUDY    38  36  92 E8        29.96S FOG     WCI  32
SOUTH HAVEN    FOG       40  39  96 SE5       29.95S VSB 3/4
$$
MIZ016>042-220000-
NORTHERN LOWER MICHIGAN

CITY           SKY/WX    TMP DP  RH WIND       PRES   REMARKS
ALPENA         CLOUDY    32  32 100 NE3       30.01R FOG
BEAVER ISLAND  CLOUDY    38  35  88 CALM      30.02R FOG
BELLAIRE       CLOUDY    38  34  84 N3        30.00R
CADILLAC       CLOUDY    38  34  87 CALM      29.96S FOG
CHARLEVOIX     CLOUDY    35  34  96 CALM      30.04R FOG
FRANKFORT      FAIR      37  34  87 NE3       29.98R
GAYLORD        CLOUDY    37  31  78 CALM      29.98R
GRAYLING       FAIR      34  30  85 CALM      29.99R
HARBOR SPRINGS CLOUDY    34  32  92 CALM      30.01R
HOUGHTON LAKE  CLOUDY    35  31  85 CALM      29.98R
MANISTEE       CLOUDY    40  35  83 CALM      29.97R
OSCODA         FOG       32  31  96 SW8       30.01R VSB 1/2 WCI  25
PELLSTON       CLOUDY    36  31  82 CALM      30.01R
ROGERS CITY    CLOUDY    33  32  96 CALM      30.02R FOG
TRAVERSE CITY  CLOUDY    37  35  92 NE6       29.99R FOG     WCI  32
$$
MIZ007>008-015-220000-
EASTERN UPPER MICHIGAN

CITY           SKY/WX    TMP DP  RH WIND       PRES   REMARKS
KINROSS        CLOUDY    34  31  88 E5        30.02R WCI  30
MACKINAC ISLAN CLOUDY    34  34 100 SE6       30.01R WCI  29
NEWBERRY       CLOUDY    34  33  96 CALM      30.00R
S. S. MARIE    FAIR      37  31  78 CALM      30.02R
MUNISING         N/A     32  32 100 NW5       30.01R WCI  27
$$
MIZ004>006-011>014-085-220000-
CENTRAL UPPER MICHIGAN

CITY           SKY/WX    TMP DP  RH WIND       PRES   REMARKS
MANISTIQUE     FOG       34  32  93 CALM      30.01R VSB 1/4
ESCANABA       CLOUDY    35  30  82 CALM      30.00R
MENOMINEE      CLOUDY    35  31  85 NE6       30.00R FOG     WCI  30
SAWYER-GWINN   CLOUDY    32  30  93 N9G25     30.00R FOG     WCI  24
$$
MIZ001>003-009>011-084-220000-
WESTERN UPPER MICHIGAN

CITY           SKY/WX    TMP DP  RH WIND       PRES   REMARKS
IRON MOUNTAIN  CLOUDY    36  31  82 CALM      29.97R
HOUGHTON       FOG       32  29  88 E6        30.02R VSB 3/4 WCI  26
COPPER HARBOR    N/A     30  28  92 E14G21    30.06R WCI  19
IRONWOOD       FOG       29  28  96 NE3       30.02R VSB 1/4
$$

ABBREVIATIONS USED IN REMARKS
   TC - TEMPERATURE IN CELSIUS
  WCI - WIND CHILL INDEX
   HX - HEAT INDEX
  VSB - VISIBILITY





USA.gov is the U.S. government's official web portal to all federal, state and local government web resources and services.